Flag for Norway Weather past 2 weeks in Longyearbyen, Svalbard, Norway

Now
21 °F

Scattered clouds.


Feels Like: 7 °F
Forecast: 13 / 21 °F
Wind: 17 mph from Southeast

Location: Svalbard Lufthavn

Current Time: Apr 22, 2015 at 12:14:57 AM

Latest Report: Apr 21, 2015 at 10:56 PM


Visibility: N/A

Pressure: 29.68 "Hg

Humidity: 68%

Dew point: 12 °F

Location of LongyearbyenLocation

Historic Weather in Longyearbyen — Graph

°F

Longyearbyen temperature yesterday

Maximum temperature yesterday: 21 °F (at 7:50 PM)
Minimum temperature yesterday: 14 °F (at 12:07 AM)
Average temperature yesterday: 18 °F

Past Weeks' High & Low Weather Summary

 TemperatureHumidityPressure
High43 °F (Apr 16, 5:50 PM)93% (Apr 8, 12:50 AM)29.92 "Hg (Apr 8, 12:50 AM)
Low14 °F (Apr 20, 10:50 PM)57% (Apr 16, 5:50 PM)29.15 "Hg (Apr 7, 9:50 PM)
Average26 °F74%29.51 "Hg
* Reported Apr 6 10:50 PM — Apr 21 10:56 PM, Longyearbyen, Weather by CustomWeather, © 2015

Note: Actual official high and low records may vary slightly from our data, if they occured in-between our weather recording intervals... More about our weather records

Advertising

Longyearbyen weather history for previous 24 hours

 ConditionsComfort  
Time TempWeatherWind HumidityBarometerVisibility
10:56 PM
Tue, Apr 21
21 °FScattered clouds.17 mph68%29.68 "HgN/A
9:50 PM21 °FBroken clouds.14 mph68%29.71 "HgN/A
8:50 PM21 °FBroken clouds.13 mph68%29.71 "HgN/A
7:50 PM21 °FPartly sunny.16 mph68%29.74 "HgN/A
6:50 PM19 °FPartly sunny.16 mph73%29.74 "HgN/A
5:50 PM19 °FPartly sunny.18 mph73%29.77 "HgN/A
4:57 PM18 °FBroken clouds.18 mph79%29.80 "HgN/A
3:50 PM18 °FBroken clouds.13 mph73%29.83 "HgN/A
2:50 PM18 °FScattered clouds.9 mph73%29.86 "HgN/A
1:50 PM18 °FPassing clouds.8 mph68%29.86 "HgN/A
12:50 PM19 °FPassing clouds.6 mph68%29.89 "HgN/A
11:50 AM19 °FPassing clouds.8 mph63%29.89 "HgN/A
11:20 AM18 °FPassing clouds.10 mph68%29.89 "HgN/A
10:10 AM18 °FBroken clouds.8 mph68%29.89 "HgN/A
8:50 AM16 °FBroken clouds.10 mph73%29.89 "HgN/A
7:50 AM16 °FLight snow. Broken clouds.12 mph79%29.89 "HgN/A
6:50 AM14 °FLight snow. Broken clouds.13 mph79%29.92 "HgN/A
5:50 AM14 °FLight snow. Overcast.14 mph79%29.89 "HgN/A
4:50 AM16 °FLight snow. Overcast.12 mph73%29.89 "HgN/A
3:08 AM16 °FLight snow. Ice fog.9 mph73%29.89 "Hg4 mi
1:50 AM16 °FLight snow. Ice fog.10 mph73%29.89 "Hg6 mi
12:50 AM16 °FLight snow. Broken clouds.9 mph73%29.89 "HgN/A
12:07 AM14 °FLight snow. Partly sunny.10 mph85%29.89 "HgN/A
Weather by CustomWeather, © 2015

See weather overviewHow to use our weather pages